Location: Cassano d�Adda
(45.5333°N, 9.5167°E)
Time: 08:45:40
(UTC+00:00)

YAOGAN 1 - Pass Details

Date: 08 December 2019
Orbit: 619 x 621 km, 98.0° (Epoch: 17 January)

Event Time Altitude Azimuth Distance (km) Brightness Sun altitude
Rises 16:58:44 0° 138° (SE) 2,888 5.8 -13.5°
Reaches altitude 10° 17:01:06 10° 127° (SE) 1,986 4.8 -13.9°
Maximum altitude 17:04:51 29° 67° (ENE) 1,137 3.3 -14.5°
Drops below altitude 10° 17:08:37 10° 7° (N) 1,999 4.9 -15.1°
Sets 17:11:00 0° 357° (N) 2,910 5.9 -15.5°
